sat.trackr.live / text

‹ back to catalog

STARLINK-34773

NORAD 65024 · 2025-161K

PAYLOAD ACTIVE UNKNOWN

§ Identity

Operator
Country
US
Launch date
2025-07-30
Launch site
AFWTR
Launch vehicle
Mass (kg)
RCS (m²)

Purposes: comms

External: N2YO · Heavens-Above · Gunter

§ Orbital elements

Epoch: 2026-05-25T04:00:03.998880Z

Period
93.85 min
Inclination
53.1592°
Eccentricity
0.0001027
Mean motion
15.34385643 rev/d
Perigee alt
462.0 km
Apogee alt
463.4 km
Semi-major
6,840.9 km
B*
2.0115e-4
RAAN
298.7018°
Arg perigee
64.9226°
Mean anomaly
259.8365°
Rev number
580

§ Raw data

STARLINK-347731 65024U 25161K   26145.16671295  .00006423  00000+0  20115-3 0  99932 65024  53.1592 298.7018 0001027  64.9226 259.8365 15.34385643  5801

JSON: /api/v1/satellites/65024 · /tle

For live sub-satellite position, see the globe view (requires WebGL).

§ Visibility from observer

Set your observer location to see the next 7 days of passes ≥ 10°. The values pass through the URL so the page stays shareable.

No JS? Fill the form by hand. The geolocation button needs JavaScript.